Погода в Теряеве

Россия / Московская область     56°10′19″N   36°07′38″E
темп.,
°C
ветер,
м/с
пор.,
м/с
влажн.,
%
обл.,
%
осадки,
мм/ч
давл.,
гПа
погр.,
м
8 марта, пн
пн800:00−10зюз4119130 0.1 995335
03:00−8зюз4119156 0.1 994480
06:00−8зсз51091100 0.5 996916
09:00−8сз5991100 0.8 998642
12:00−7ссз4784100 0.1 1002773
15:00−6сз5785100 0.3 1004840
18:00−8ссз3695100 0.3 1007372
21:00−12с379588 0.4 1009171
9 марта, вт
вт900:00−14ссз269884 0.0 1012156
03:00−16ссз249985 0.1 101498
06:00−18ссз239975 0.0 101570
09:00−17ссз359483 0.1 1017278
12:00−14ссз3585100 0.0 1018535
15:00−13ссз4681100 0.1 1019737
18:00−15с3689100 0.0 1020212
21:00−19с249864 0.0 102387
10 марта, ср
ср1000:00−21с229941 0.0 102546
03:00−23с229946 0.0 102743
06:00−25с239947 0.0 102867
09:00−23ссв249331 0.0 1030193
12:00−16с24730 0.0 1030455
15:00−13ссз23680 0.0 1030660
18:00−16зсз22850 0.0 103022
21:00−19з23900 0.0 103125
11 марта, чт
чт1100:00−19з23900 0.0 103130
03:00−20з22934 0.0 103222
06:00−20з22966 0.0 103223
09:00−17з23923 0.0 1033125
12:00−11з23809 0.0 1032358
15:00−9юз23798 0.0 1031406
18:00−12ююз22880 0.0 102930
21:00−15ю33890 0.0 102955
12 марта, пт
пт1200:00−16ю49840 0.0 1028195
03:00−16ю512790 0.0 1027302
06:00−17ю513730 0.0 1025313
09:00−14ю6148227 0.0 1022372
12:00−9ююв71580100 0.0 1019577
15:00−6ююв81687100 0.1 1016783
18:00−6ю71587100 0.5 10131112
21:00−5ю71589100 0.9 1011976